| time (UTC) | temp F | wind direction | speed MPH | gust MPH | rain 1hr in | rain 24hr in | rain mn in | humidity % | barometer mb |
| 20260504110312 | 69 | 57 | 1.0 | 0.0 | 0.00 | 0.00 | 0.41 | 47 | 1001.6 |
| 20260504100320 | 71 | 103 | 0.0 | 0.0 | 0.00 | 0.00 | 0.41 | 54 | 999.8 |
| 20260504081819 | 76 | 130 | 2.0 | 0.0 | 0.00 | 0.00 | 0.41 | 41 | 996.3 |
| 20260504080326 | 76 | 284 | 4.0 | 0.0 | 0.00 | 0.00 | 0.41 | 38 | 995.8 |
| 20260504070327 | 76 | 132 | 2.0 | 0.0 | 0.00 | 0.00 | 0.41 | 47 | 994.9 |
| 20260504050330 | 77 | 226 | 3.0 | 0.0 | 0.00 | 0.00 | 0.41 | 60 | 994.2 |
| 20260504044818 | 77 | 121 | 4.0 | 0.0 | 0.00 | 0.00 | 0.41 | 59 | 994.1 |
| 20260504043317 | 77 | 180 | 3.0 | 0.0 | 0.00 | 0.00 | 0.41 | 58 | 994.1 |
| 20260504041852 | 77 | 263 | 5.0 | 0.0 | 0.00 | 0.00 | 0.41 | 58 | 994.2 |
| 20260504040356 | 77 | 252 | 6.0 | 0.0 | 0.00 | 0.00 | 0.41 | 56 | 994.1 |
| 20260504034815 | 77 | 184 | 5.0 | 0.0 | 0.00 | 0.00 | 0.41 | 58 | 994.1 |
| 20260504033322 | 78 | 232 | 5.0 | 0.0 | 0.00 | 0.00 | 0.41 | 56 | 994.3 |
| 20260504031829 | 79 | 250 | 6.0 | 0.0 | 0.00 | 0.00 | 0.41 | 57 | 994.2 |
| 20260504030328 | 80 | 187 | 6.0 | 0.0 | 0.00 | 0.00 | 0.41 | 57 | 994.3 |
| 20260504024819 | 80 | 242 | 8.0 | 0.0 | 0.00 | 0.00 | 0.41 | 56 | 994.4 |
| 20260504023315 | 80 | 213 | 8.0 | 0.0 | 0.00 | 0.00 | 0.41 | 59 | 994.2 |
| 20260504021822 | 80 | 276 | 7.0 | 0.0 | 0.00 | 0.00 | 0.41 | 62 | 994.3 |
| 20260504020320 | 80 | 235 | 6.0 | 0.0 | 0.00 | 0.00 | 0.41 | 63 | 994.2 |
| 20260504014832 | 79 | 272 | 5.0 | 0.0 | 0.00 | 0.00 | 0.41 | 64 | 994.8 |
| 20260504013330 | 79 | 158 | 3.0 | 0.0 | 0.00 | 0.00 | 0.41 | 67 | 995.3 |
| 20260504011836 | 78 | 119 | 3.0 | 0.0 | 0.00 | 0.00 | 0.41 | 69 | 995.3 |
| 20260504010321 | 78 | 98 | 3.0 | 0.0 | 0.00 | 0.00 | 0.41 | 69 | 995.4 |
| 20260504004829 | 78 | 114 | 2.0 | 0.0 | 0.00 | 0.00 | 0.41 | 71 | 995.8 |
| 20260504003336 | 76 | 291 | 2.0 | 0.0 | 0.00 | 0.00 | 0.41 | 76 | 996.3 |
| 20260504001815 | 75 | 261 | 3.0 | 0.0 | 0.00 | 0.00 | 0.41 | 77 | 996.3 |
| 20260504000321 | 74 | 138 | 4.0 | 0.0 | 0.00 | 0.00 | 0.41 | 80 | 996.3 |
| 20260503234825 | 73 | 242 | 4.0 | 0.0 | 0.00 | 0.00 | 0.41 | 85 | 996.5 |
| 20260503233328 | 72 | 259 | 4.0 | 0.0 | 0.00 | 0.00 | 0.41 | 88 | 996.6 |
| 20260503231816 | 71 | 80 | 3.0 | 0.0 | 0.00 | 0.00 | 0.41 | 91 | 996.4 |
| 20260503230323 | 70 | 149 | 4.0 | 0.0 | 0.00 | 0.00 | 0.41 | 92 | 996.7 |
| 20260503224827 | 70 | 244 | 4.0 | 0.0 | 0.00 | 0.00 | 0.41 | 94 | 996.7 |
| 20260503223330 | 70 | 105 | 3.0 | 0.0 | 0.00 | 0.00 | 0.41 | 94 | 996.7 |
| 20260503221838 | 70 | 106 | 2.0 | 0.0 | 0.00 | 0.00 | 0.41 | 95 | 996.7 |
| 20260503220315 | 69 | 113 | 2.0 | 0.0 | 0.00 | 0.00 | 0.41 | 95 | 996.6 |
| 20260503214844 | 69 | 119 | 2.0 | 0.0 | 0.00 | 0.00 | 0.41 | 94 | 996.4 |
| 20260503213349 | 70 | 124 | 2.0 | 0.0 | 0.00 | 0.00 | 0.41 | 95 | 995.8 |
| 20260503211814 | 69 | 125 | 3.0 | 0.0 | 0.00 | 0.00 | 0.41 | 94 | 996.0 |
| 20260503210319 | 69 | 148 | 4.0 | 0.0 | 0.00 | 0.00 | 0.40 | 94 | 996.0 |
| 20260503204825 | 69 | 105 | 3.0 | 0.0 | 0.00 | 0.00 | 0.39 | 94 | 995.5 |
| 20260503203331 | 69 | 120 | 5.0 | 0.0 | 0.00 | 0.00 | 0.38 | 94 | 995.5 |
| 20260503201831 | 69 | 142 | 4.0 | 0.0 | 0.00 | 0.00 | 0.35 | 94 | 995.2 |
| 20260503200321 | 69 | 360 | 3.0 | 0.0 | 0.00 | 0.00 | 0.28 | 94 | 996.1 |
| 20260503194829 | 69 | 82 | 2.0 | 0.0 | 0.00 | 0.00 | 0.20 | 93 | 996.5 |
| 20260503193332 | 69 | 112 | 7.0 | 0.0 | 0.00 | 0.00 | 0.12 | 94 | 996.6 |
| 20260503191837 | 68 | 130 | 5.0 | 0.0 | 0.00 | 0.00 | 0.12 | 94 | 996.9 |
| 20260503190316 | 68 | 61 | 4.0 | 0.0 | 0.00 | 0.00 | 0.11 | 94 | 997.2 |
| 20260503184822 | 68 | 258 | 4.0 | 0.0 | 0.00 | 0.00 | 0.10 | 93 | 997.2 |
| 20260503183348 | 67 | 150 | 4.0 | 0.0 | 0.00 | 0.00 | 0.09 | 93 | 998.3 |
| 20260503181836 | 67 | 184 | 4.0 | 0.0 | 0.00 | 0.00 | 0.06 | 93 | 998.3 |
| 20260503180321 | 66 | 46 | 2.0 | 0.0 | 0.00 | 0.00 | 0.04 | 92 | 998.8 |
| 20260503174826 | 66 | 92 | 1.0 | 0.0 | 0.00 | 0.00 | 0.02 | 91 | 999.3 |
| 20260503173330 | 65 | 195 | 1.0 | 0.0 | 0.00 | 0.00 | 0.02 | 90 | 999.5 |
| 20260503171817 | 65 | 113 | 3.0 | 0.0 | 0.00 | 0.00 | 0.02 | 90 | 1000.2 |
| 20260503170320 | 65 | 103 | 5.0 | 0.0 | 0.00 | 0.00 | 0.02 | 90 | 999.9 |
| 20260503150320 | 66 | 113 | 2.0 | 0.0 | 0.00 | 0.00 | 0.00 | 88 | 1002.7 |
| 20260503130319 | 67 | 103 | 3.0 | 0.0 | 0.00 | 0.00 | 0.00 | 80 | 1005.2 |